Location: Lango�lan
(48.1202°N, 3.2340°W)
Time: 15:22:26
(UTC+00:00)

COSMOS 2455 - Pass Details

Date: 23 October 2019
Orbit: 901 x 909 km, 67.1° (Epoch: 17 November)

Event Time Altitude Azimuth Distance (km) Brightness Sun altitude
Exits shadow 04:40:35 20° 319° (NW) 1,955 4.3 -21.2°
Maximum altitude 04:41:25 21° 330° (NNW) 1,927 4.3 -21.0°
Drops below altitude 10° 04:45:55 10° 19° (NNE) 2,604 5.5 -20.3°
Sets 04:49:07 0° 35° (NE) 3,547 6.5 -19.7°
